Time,TemperatureF,DewpointF,PressureIn,WindDirection,WindDirectionDegrees,WindSpeedMPH,WindSpeedGustMPH,Humidity,HourlyPrecipIn,Conditions,Clouds,dailyrainin,SolarRadiationWatts/m^2,SoftwareType,DateUTC
2013-06-16 00:01:00,59.0,44.0,-100.00,SW,222,2.0,2.0,57,0.00,,,0.00,0.000000,,2013-06-16 06:01:00,
2013-06-16 00:11:00,59.0,44.0,-100.00,SW,222,2.0,2.0,57,0.00,,,0.00,0.000000,,2013-06-16 06:11:00,
2013-06-16 00:22:00,59.0,44.0,-100.00,SW,222,2.0,2.0,57,0.00,,,0.00,0.000000,,2013-06-16 06:22:00,
2013-06-16 00:43:00,58.0,45.0,-100.00,WSW,240,2.0,5.0,62,0.00,,,0.00,0.000000,,2013-06-16 06:43:00,
2013-06-16 00:52:00,58.0,45.0,-100.00,WSW,240,2.0,5.0,62,0.00,,,0.00,0.000000,,2013-06-16 06:52:00,
2013-06-16 01:01:00,58.0,45.0,-100.00,WSW,240,2.0,5.0,62,0.00,,,0.00,0.000000,,2013-06-16 07:01:00,
2013-06-16 01:11:00,58.0,45.0,-100.00,WSW,240,2.0,5.0,62,0.00,,,0.00,0.000000,,2013-06-16 07:11:00,
2013-06-16 01:22:00,58.0,45.0,-100.00,WSW,240,2.0,5.0,62,0.00,,,0.00,0.000000,,2013-06-16 07:22:00,
2013-06-16 01:43:00,55.0,45.0,-100.00,SW,221,3.0,4.0,69,0.00,,,0.00,0.000000,,2013-06-16 07:43:00,
2013-06-16 01:53:00,55.0,45.0,-100.00,SW,221,3.0,4.0,69,0.00,,,0.00,0.000000,,2013-06-16 07:53:00,
2013-06-16 02:02:00,55.0,45.0,-100.00,SW,221,3.0,4.0,69,0.00,,,0.00,0.000000,,2013-06-16 08:02:00,
2013-06-16 02:11:00,55.0,45.0,-100.00,SW,221,3.0,4.0,69,0.00,,,0.00,0.000000,,2013-06-16 08:11:00,
2013-06-16 02:22:00,55.0,45.0,-100.00,SW,221,3.0,4.0,69,0.00,,,0.00,0.000000,,2013-06-16 08:22:00,
2013-06-16 02:43:00,51.0,45.0,-100.00,SW,228,5.0,7.0,79,0.00,,,0.00,0.000000,,2013-06-16 08:43:00,
2013-06-16 02:54:00,51.0,45.0,-100.00,SW,228,5.0,7.0,79,0.00,,,0.00,0.000000,,2013-06-16 08:54:00,
2013-06-16 03:02:00,51.0,45.0,-100.00,SW,228,5.0,7.0,79,0.00,,,0.00,0.000000,,2013-06-16 09:02:00,
2013-06-16 03:11:00,51.0,45.0,-100.00,SW,228,5.0,7.0,79,0.00,,,0.00,0.000000,,2013-06-16 09:11:00,
2013-06-16 03:22:00,51.0,45.0,-100.00,SW,228,5.0,7.0,79,0.00,,,0.00,0.000000,,2013-06-16 09:22:00,
2013-06-16 03:52:00,53.0,46.0,-100.00,SW,215,5.0,9.0,76,0.00,,,0.00,0.000000,,2013-06-16 09:52:00,
2013-06-16 04:01:00,53.0,46.0,-100.00,SW,215,5.0,9.0,76,0.00,,,0.00,0.000000,,2013-06-16 10:01:00,
2013-06-16 04:12:00,53.0,46.0,-100.00,SW,215,5.0,9.0,76,0.00,,,0.00,0.000000,,2013-06-16 10:12:00,
2013-06-16 04:22:00,53.0,46.0,-100.00,SW,215,5.0,9.0,76,0.00,,,0.00,0.000000,,2013-06-16 10:22:00,
2013-06-16 04:54:00,52.0,45.0,-100.00,SW,219,4.0,8.0,76,0.00,,,0.00,0.000000,,2013-06-16 10:54:00,
2013-06-16 05:02:00,52.0,45.0,-100.00,SW,219,4.0,8.0,76,0.00,,,0.00,0.000000,,2013-06-16 11:02:00,
2013-06-16 05:11:00,52.0,45.0,-100.00,SW,219,4.0,8.0,76,0.00,,,0.00,0.000000,,2013-06-16 11:11:00,
2013-06-16 05:22:00,52.0,45.0,-100.00,SW,219,4.0,8.0,76,0.00,,,0.00,0.000000,,2013-06-16 11:22:00,
2013-06-16 05:43:00,48.0,43.0,-100.00,WNW,298,1.0,6.0,84,0.00,,,0.00,4.000000,,2013-06-16 11:43:00,
2013-06-16 05:53:00,48.0,43.0,-100.00,WNW,298,1.0,6.0,84,0.00,,,0.00,4.000000,,2013-06-16 11:53:00,
2013-06-16 06:02:00,48.0,43.0,-100.00,WNW,298,1.0,6.0,84,0.00,,,0.00,4.000000,,2013-06-16 12:02:00,
2013-06-16 06:11:00,48.0,43.0,-100.00,WNW,298,1.0,6.0,84,0.00,,,0.00,4.000000,,2013-06-16 12:11:00,
2013-06-16 06:22:00,48.0,43.0,-100.00,WNW,298,1.0,6.0,84,0.00,,,0.00,4.000000,,2013-06-16 12:22:00,
2013-06-16 07:01:00,58.0,48.0,-100.00,WNW,301,2.0,5.0,69,0.00,,,0.00,94.000000,,2013-06-16 13:01:00,
2013-06-16 07:11:00,58.0,48.0,-100.00,WNW,301,2.0,5.0,69,0.00,,,0.00,94.000000,,2013-06-16 13:11:00,
2013-06-16 07:22:00,58.0,48.0,-100.00,WNW,301,2.0,5.0,69,0.00,,,0.00,94.000000,,2013-06-16 13:22:00,
2013-06-16 08:12:00,66.0,50.0,-100.00,NW,310,2.0,7.0,56,0.00,,,0.00,274.000000,,2013-06-16 14:12:00,
2013-06-16 08:22:00,66.0,50.0,-100.00,NW,310,2.0,7.0,56,0.00,,,0.00,274.000000,,2013-06-16 14:22:00,
2013-06-16 08:44:00,68.0,50.0,-100.00,North,354,3.0,9.0,53,0.00,,,0.00,473.000000,,2013-06-16 14:44:00,
2013-06-16 08:52:00,68.0,50.0,-100.00,North,354,3.0,9.0,53,0.00,,,0.00,473.000000,,2013-06-16 14:52:00,
2013-06-16 09:02:00,68.0,50.0,-100.00,North,354,3.0,9.0,53,0.00,,,0.00,473.000000,,2013-06-16 15:02:00,
2013-06-16 09:12:00,68.0,50.0,-100.00,North,354,3.0,9.0,53,0.00,,,0.00,473.000000,,2013-06-16 15:12:00,
2013-06-16 09:23:00,68.0,50.0,-100.00,North,354,3.0,9.0,53,0.00,,,0.00,473.000000,,2013-06-16 15:23:00,
2013-06-16 09:53:00,69.0,49.0,-100.00,WNW,303,5.0,12.0,49,0.00,,,0.00,670.000000,,2013-06-16 15:53:00,
2013-06-16 10:02:00,69.0,49.0,-100.00,WNW,303,5.0,12.0,49,0.00,,,0.00,670.000000,,2013-06-16 16:02:00,
2013-06-16 10:12:00,69.0,49.0,-100.00,WNW,303,5.0,12.0,49,0.00,,,0.00,670.000000,,2013-06-16 16:12:00,
2013-06-16 10:22:00,69.0,49.0,-100.00,WNW,303,5.0,12.0,49,0.00,,,0.00,670.000000,,2013-06-16 16:22:00,
2013-06-16 10:43:00,71.0,50.0,-100.00,NW,312,7.0,15.0,47,0.00,,,0.00,844.000000,,2013-06-16 16:43:00,
2013-06-16 10:53:00,71.0,50.0,-100.00,NW,312,7.0,15.0,47,0.00,,,0.00,844.000000,,2013-06-16 16:53:00,
2013-06-16 11:02:00,71.0,50.0,-100.00,NW,312,7.0,15.0,47,0.00,,,0.00,844.000000,,2013-06-16 17:02:00,
2013-06-16 11:12:00,71.0,50.0,-100.00,NW,312,7.0,15.0,47,0.00,,,0.00,844.000000,,2013-06-16 17:12:00,
2013-06-16 11:22:00,71.0,50.0,-100.00,NW,312,7.0,15.0,47,0.00,,,0.00,844.000000,,2013-06-16 17:22:00,
2013-06-16 11:53:00,73.0,48.0,-100.00,NNW,334,7.0,16.0,41,0.00,,,0.00,985.000000,,2013-06-16 17:53:00,
2013-06-16 12:02:00,73.0,48.0,-100.00,NNW,334,7.0,16.0,41,0.00,,,0.00,985.000000,,2013-06-16 18:02:00,
2013-06-16 12:12:00,73.0,48.0,-100.00,NNW,334,7.0,16.0,41,0.00,,,0.00,985.000000,,2013-06-16 18:12:00,
2013-06-16 12:22:00,73.0,48.0,-100.00,NNW,334,7.0,16.0,41,0.00,,,0.00,985.000000,,2013-06-16 18:22:00,
2013-06-16 12:52:00,75.0,48.0,-100.00,NW,319,8.0,16.0,38,0.00,,,0.00,1078.000000,,2013-06-16 18:52:00,
2013-06-16 13:01:00,75.0,48.0,-100.00,NW,319,8.0,16.0,38,0.00,,,0.00,1078.000000,,2013-06-16 19:01:00,
2013-06-16 13:11:00,75.0,48.0,-100.00,NW,319,8.0,16.0,38,0.00,,,0.00,1078.000000,,2013-06-16 19:11:00,
2013-06-16 13:22:00,75.0,48.0,-100.00,NW,319,8.0,16.0,38,0.00,,,0.00,1078.000000,,2013-06-16 19:22:00,
2013-06-16 13:53:00,75.0,49.0,-100.00,NW,311,8.0,21.0,40,0.00,,,0.00,1121.000000,,2013-06-16 19:53:00,
2013-06-16 14:02:00,75.0,49.0,-100.00,NW,311,8.0,21.0,40,0.00,,,0.00,1121.000000,,2013-06-16 20:02:00,
2013-06-16 14:11:00,75.0,49.0,-100.00,NW,311,8.0,21.0,40,0.00,,,0.00,1121.000000,,2013-06-16 20:11:00,
2013-06-16 14:22:00,75.0,49.0,-100.00,NW,311,8.0,21.0,40,0.00,,,0.00,1121.000000,,2013-06-16 20:22:00,
2013-06-16 14:53:00,77.0,50.0,-100.00,NW,308,8.0,19.0,39,0.00,,,0.00,1011.000000,,2013-06-16 20:53:00,
2013-06-16 15:01:00,77.0,50.0,-100.00,NW,308,8.0,19.0,39,0.00,,,0.00,1011.000000,,2013-06-16 21:01:00,
2013-06-16 15:11:00,77.0,50.0,-100.00,NW,308,8.0,19.0,39,0.00,,,0.00,1011.000000,,2013-06-16 21:11:00,
2013-06-16 15:22:00,77.0,50.0,-100.00,NW,308,8.0,19.0,39,0.00,,,0.00,1011.000000,,2013-06-16 21:22:00,
2013-06-16 15:53:00,77.0,49.0,-100.00,NNW,328,9.0,21.0,37,0.00,,,0.00,869.000000,,2013-06-16 21:53:00,
2013-06-16 16:01:00,77.0,49.0,-100.00,NNW,328,9.0,21.0,37,0.00,,,0.00,869.000000,,2013-06-16 22:01:00,
2013-06-16 16:12:00,77.0,49.0,-100.00,NNW,328,9.0,21.0,37,0.00,,,0.00,869.000000,,2013-06-16 22:12:00,
2013-06-16 16:22:00,77.0,49.0,-100.00,NNW,328,9.0,21.0,37,0.00,,,0.00,869.000000,,2013-06-16 22:22:00,
2013-06-16 16:52:00,75.0,48.0,-100.00,NW,322,8.0,22.0,38,0.00,,,0.00,780.000000,,2013-06-16 22:52:00,
2013-06-16 17:01:00,75.0,48.0,-100.00,NW,322,8.0,22.0,38,0.00,,,0.00,780.000000,,2013-06-16 23:01:00,
2013-06-16 17:11:00,75.0,48.0,-100.00,NW,322,8.0,22.0,38,0.00,,,0.00,780.000000,,2013-06-16 23:11:00,
2013-06-16 17:22:00,75.0,48.0,-100.00,NW,322,8.0,22.0,38,0.00,,,0.00,780.000000,,2013-06-16 23:22:00,
2013-06-16 17:52:00,74.0,48.0,-100.00,NW,325,9.0,21.0,40,0.00,,,0.00,644.000000,,2013-06-16 23:52:00,
2013-06-16 18:02:00,74.0,48.0,-100.00,NW,325,9.0,21.0,40,0.00,,,0.00,644.000000,,2013-06-17 00:02:00,
2013-06-16 18:11:00,74.0,48.0,-100.00,NW,325,9.0,21.0,40,0.00,,,0.00,644.000000,,2013-06-17 00:11:00,
2013-06-16 18:22:00,74.0,48.0,-100.00,NW,325,9.0,21.0,40,0.00,,,0.00,644.000000,,2013-06-17 00:22:00,
2013-06-16 18:43:00,75.0,49.0,-100.00,NW,321,7.0,19.0,40,0.00,,,0.00,498.000000,,2013-06-17 00:43:00,
2013-06-16 18:52:00,75.0,49.0,-100.00,NW,321,7.0,19.0,40,0.00,,,0.00,498.000000,,2013-06-17 00:52:00,
2013-06-16 19:02:00,75.0,49.0,-100.00,NW,321,7.0,19.0,40,0.00,,,0.00,498.000000,,2013-06-17 01:02:00,
2013-06-16 19:11:00,75.0,49.0,-100.00,NW,321,7.0,19.0,40,0.00,,,0.00,498.000000,,2013-06-17 01:11:00,
2013-06-16 19:22:00,75.0,49.0,-100.00,NW,321,7.0,19.0,40,0.00,,,0.00,498.000000,,2013-06-17 01:22:00,
2013-06-16 19:53:00,73.0,48.0,-100.00,NW,315,6.0,18.0,41,0.00,,,0.00,66.000000,,2013-06-17 01:53:00,
2013-06-16 20:02:00,73.0,48.0,-100.00,NW,315,6.0,18.0,41,0.00,,,0.00,66.000000,,2013-06-17 02:02:00,
2013-06-16 20:12:00,73.0,48.0,-100.00,NW,315,6.0,18.0,41,0.00,,,0.00,66.000000,,2013-06-17 02:12:00,
2013-06-16 20:22:00,73.0,48.0,-100.00,NW,315,6.0,18.0,41,0.00,,,0.00,66.000000,,2013-06-17 02:22:00,
2013-06-16 20:53:00,64.0,48.0,-100.00,WNW,290,2.0,12.0,56,0.00,,,0.00,58.000000,,2013-06-17 02:53:00,
2013-06-16 21:02:00,64.0,48.0,-100.00,WNW,290,2.0,12.0,56,0.00,,,0.00,58.000000,,2013-06-17 03:02:00,
2013-06-16 21:12:00,64.0,48.0,-100.00,WNW,290,2.0,12.0,56,0.00,,,0.00,58.000000,,2013-06-17 03:12:00,
2013-06-16 21:22:00,64.0,48.0,-100.00,WNW,290,2.0,12.0,56,0.00,,,0.00,58.000000,,2013-06-17 03:22:00,
2013-06-16 21:54:00,59.0,49.0,-100.00,NW,308,3.0,6.0,70,0.00,,,0.00,6.000000,,2013-06-17 03:54:00,
2013-06-16 22:02:00,59.0,49.0,-100.00,NW,308,3.0,6.0,70,0.00,,,0.00,6.000000,,2013-06-17 04:02:00,
2013-06-16 22:12:00,59.0,49.0,-100.00,NW,308,3.0,6.0,70,0.00,,,0.00,6.000000,,2013-06-17 04:12:00,
2013-06-16 22:22:00,59.0,49.0,-100.00,NW,308,3.0,6.0,70,0.00,,,0.00,6.000000,,2013-06-17 04:22:00,
2013-06-16 22:53:00,55.0,49.0,-100.00,WNW,286,2.0,5.0,79,0.00,,,0.00,0.000000,,2013-06-17 04:53:00,
2013-06-16 23:02:00,55.0,49.0,-100.00,WNW,286,2.0,5.0,79,0.00,,,0.00,0.000000,,2013-06-17 05:02:00,
2013-06-16 23:12:00,55.0,49.0,-100.00,WNW,286,2.0,5.0,79,0.00,,,0.00,0.000000,,2013-06-17 05:12:00,
2013-06-16 23:22:00,55.0,49.0,-100.00,WNW,286,2.0,5.0,79,0.00,,,0.00,0.000000,,2013-06-17 05:22:00,
2013-06-16 23:53:00,57.0,50.0,-100.00,NW,312,2.0,6.0,78,0.00,,,0.00,0.000000,,2013-06-17 05:53:00,